This demonstration page uses our WeatherBlox Daily Observations layout. Learn more.

Left ArrowRight Arrow

41.86663, -103.66717

Hourly Observations for September 18, 2017

Temp ( °F °C ) Dew Point ( °F °C ) Humidity (%) Winds ( mph kmh ) Pressure ( in mb ) Visibility ( mi km ) Precip ( " mm )
12:53 am 00:53 Clear 50 10 48 8.9 93 93 ESE 7 11 29.91 1013 10 16 N/A
1:53 am 01:53 Clear 50 10 47 8.3 89 89 ESE 8 13 29.91 1013 10 16 N/A
2:53 am 02:53 Clear 49 9.4 46 7.8 90 90 ESE 6 9 29.90 1013 10 16 N/A
3:53 am 03:53 Clear 49 9.4 46 7.8 90 90 E 7 11 29.89 1012 10 16 N/A
4:53 am 04:53 Clear 48 8.9 46 7.8 93 93 E 7 11 29.90 1013 10 16 N/A
5:53 am 05:53 Clear 48 8.9 46 7.8 93 93 E 6 9 29.93 1014 9 14 N/A
6:53 am 06:53 Sunny with Mist and Fog 47 8.3 45 7.2 93 93 E 6 9 29.94 1014 5 8 N/A
7:53 am 07:53 Sunny 52 11.1 48 8.9 86 86 N N/A 29.94 1014 7 11 N/A
8:53 am 08:53 Sunny 57 13.9 50 10 78 78 WNW 3 6 29.92 1013 10 16 N/A
9:53 am 09:53 Sunny 63 17.2 46 7.8 54 54 NW 5 7 29.90 1013 10 16 N/A
10:53 am 10:53 Sunny 68 20 47 8.3 47 47 WSW 5 7 29.89 1012 10 16 N/A
11:53 am 11:53 Sunny 75 23.9 48 8.9 39 39 VRB 5 7 29.85 1011 10 16 N/A
12:53 pm 12:53 Sunny 78 25.6 47 8.3 33 33 N N/A 29.82 1010 10 16 N/A
1:53 pm 13:53 Sunny 82 27.8 46 7.8 28 28 VRB 7 11 29.78 1009 10 16 N/A
2:53 pm 14:53 Sunny 82 27.8 41 5 23 23 E 3 6 29.76 1008 10 16 N/A
3:53 pm 15:53 Sunny 82 27.8 38 3.3 21 21 ESE 6 9 29.73 1007 10 16 N/A
4:53 pm 16:53 Sunny 81 27.2 40 4.4 23 23 ESE 13 20 29.72 1007 10 16 N/A
5:53 pm 17:53 Sunny 77 25 49 9.4 37 37 ESE 12 19 29.72 1006 10 16 N/A
6:53 pm 18:53 Sunny 68 20 51 10.6 55 55 ESE 8 13 29.73 1007 10 16 N/A
7:53 pm 19:53 Clear 62 16.7 51 10.6 67 67 E 8 13 29.73 1007 10 16 N/A
8:53 pm 20:53 Clear 58 14.4 50 10 75 75 ESE 7 11 29.73 1007 10 16 N/A
9:53 pm 21:53 Clear 57 13.9 47 8.3 69 69 ESE 8 13 29.70 1006 10 16 N/A
10:53 pm 22:53 Clear 58 14.4 44 6.7 60 60 ESE 9 15 29.68 1005 10 16 N/A
11:53 pm 23:53 Clear 64 17.8 45 7.2 50 50 SE 9 15 29.63 1003 10 16 N/A

Powered by AerisWeather